SPACEBEENZ-10 (48882 NORAD) Tracking and Keplerian Element Data

This shows tracking and keplerian element data for the satellite.

Feedback or suggestion? Click here.




ElementValue
Catalog48882
NameSPACEBEENZ-10
Epoch Orbit1670
Epoch Day287.3372445
Epoch Year2021
RAAN54.499
Inclination97.5263
Eccentricity0.0007761
Argument of Perigee228.9774
Mean Anonmoly131.0787
Mean Motion15.12466761
Decay Rate4.073E-05
L11 48882U 21059D 21287.33724450 .00004073 00000-0 23776-3 0 9997
L22 48882 97.5263 54.4990 0007761 228.9774 131.0787 15.12466761 16705

Live tracking and technical data element details for SPACEBEENZ-10 (NORAD 48882). SPACEBEENZ-10 can be tracked NOW for your location showing map with azimuth and elevation plus other details from your city location.

Track the satellite on the map from your city or location and see movement details for azimuth, elevation, latitude, longitude, range, height, and movement on the map or in text.







IsCatalogInMostPopularTable: catalog: 48882, numindb: 19
Update: records affected: 1



GetName: 48882 SPACEBEENZ-10

Hit Count: updated at: Tue, 19 Oct 2021 08:11:33 GMT